User: anonymous   Login
Location: Brno
(49.2000°N, 16.6330°E)
Time: 04:04:08
(UTC+02:00)
Language:

Cosmos 2227 - Orbit

View from above orbital plane
View from above orbital plane
View from above satellite
View from above satellite

Ground track
Ground track

The orbit data is extracted from the following two-line orbital elements,

1 22284U 92093A   15089.18326331 -.00000140  00000-0 -48903-4 0  9996
2 22284 070.9762 133.4681 0020677 311.6364 048.2986 14.13208461148205
Epoch (UTC): 30 March 2015 04:23:53
Eccentricity: 0.0020677
inclination: 70.9762°
perigee height: 833 km
apogee height: 863 km
right ascension of ascending node: 133.4681°
argument of perigee: 311.6364°
revolutions per day: 14.13208461
mean anomaly at epoch: 48.2986°
orbit number at epoch: 14820

The dashed part of the orbit path shows where the satellite is in the earth's shadow,  

DLR